OAL942 LGSA-LGAL

Flight info

Callsign OAL942
Flight time 0h 56m
Altitude 29000
Route RUSOS J56 RESTI UJ56 MIL UL617 KEA UG33 LMO
Aircraft B738/M-SDE2E3FGHIRWXY/LB1

Departure

Time 2026-05-07 06:38
Airport Chania International Airport (LGSA)

Arrival

Time 2026-05-07 07:34
Airport Alexandroupoli Democritus Airport (LGAL)
Time Latitude Longitude Altitude Speed Heading
2026-05-07 06:18 35.53851 24.14107 417 ft 0 kts 22°
2026-05-07 06:29 35.53849 24.14107 416 ft 1 kts 22°
2026-05-07 06:29 35.53835 24.14100 416 ft 2 kts 21°
2026-05-07 06:29 35.53821 24.14093 416 ft 2 kts 21°
2026-05-07 06:29 35.53808 24.14082 417 ft 2 kts 59°
2026-05-07 06:30 35.53804 24.14064 418 ft 2 kts 94°
2026-05-07 06:30 35.53805 24.14055 418 ft 1 kts 113°
2026-05-07 06:30 35.53801 24.14073 419 ft 6 kts 111°
2026-05-07 06:30 35.53786 24.14116 420 ft 3 kts 112°
2026-05-07 06:31 35.53780 24.14126 420 ft 1 kts 158°
2026-05-07 06:31 35.53770 24.14120 420 ft 1 kts 237°
2026-05-07 06:31 35.53772 24.14108 420 ft 1 kts 293°
2026-05-07 06:31 35.53773 24.14104 420 ft 0 kts 292°
2026-05-07 06:33 35.53775 24.14100 419 ft 5 kts 292°
2026-05-07 06:34 35.53760 24.14009 419 ft 13 kts 211°
2026-05-07 06:34 35.53706 24.13959 423 ft 8 kts 256°
2026-05-07 06:34 35.53711 24.13893 422 ft 7 kts 286°
2026-05-07 06:34 35.53731 24.13824 420 ft 9 kts 291°
2026-05-07 06:35 35.53756 24.13749 419 ft 9 kts 292°
2026-05-07 06:35 35.53782 24.13671 417 ft 10 kts 292°
2026-05-07 06:35 35.53812 24.13581 414 ft 12 kts 292°
2026-05-07 06:35 35.53794 24.13498 414 ft 9 kts 212°
2026-05-07 06:36 35.53772 24.13484 416 ft 0 kts 202°
2026-05-07 06:36 35.53759 24.13478 417 ft 9 kts 202°
2026-05-07 06:36 35.53701 24.13455 422 ft 7 kts 175°
2026-05-07 06:37 35.53643 24.13538 425 ft 27 kts 112°
2026-05-07 06:37 35.53494 24.14004 437 ft 90 kts 112°
2026-05-07 06:37 35.53174 24.14992 455 ft 158 kts 111°
2026-05-07 06:37 35.52726 24.16426 882 ft 186 kts 111°
2026-05-07 06:38 35.52262 24.17832 1951 ft 178 kts 114°
2026-05-07 06:38 35.51791 24.19120 2842 ft 165 kts 112°
2026-05-07 06:38 35.51427 24.20447 3361 ft 168 kts 105°
2026-05-07 06:38 35.51186 24.21858 3882 ft 171 kts 95°
2026-05-07 06:39 35.51501 24.23269 4290 ft 182 kts 49°
2026-05-07 06:39 35.52617 24.24027 4642 ft 194 kts
2026-05-07 06:39 35.53985 24.24173 5093 ft 202 kts
2026-05-07 06:39 35.55418 24.24396 5483 ft 215 kts
2026-05-07 06:40 35.56927 24.24739 5922 ft 226 kts 11°
2026-05-07 06:40 35.58513 24.25121 6347 ft 237 kts 11°
2026-05-07 06:40 35.60169 24.25506 6761 ft 249 kts 10°
2026-05-07 06:40 35.61919 24.25902 7143 ft 261 kts 10°
2026-05-07 06:41 35.63723 24.26310 7556 ft 272 kts
2026-05-07 06:41 35.65602 24.26736 8081 ft 277 kts
2026-05-07 06:41 35.67508 24.27171 8720 ft 278 kts
2026-05-07 06:41 35.69397 24.27603 9368 ft 277 kts
2026-05-07 06:42 35.71301 24.28035 9972 ft 279 kts
2026-05-07 06:42 35.73215 24.28470 10492 ft 283 kts
2026-05-07 06:42 35.75195 24.28921 10895 ft 297 kts
2026-05-07 06:42 35.77275 24.29393 11256 ft 313 kts
2026-05-07 06:43 35.79464 24.29891 11668 ft 327 kts
2026-05-07 06:43 35.81742 24.30411 12022 ft 341 kts
2026-05-07 06:43 35.84141 24.30959 12399 ft 355 kts
2026-05-07 06:43 35.86587 24.31518 12749 ft 367 kts
2026-05-07 06:44 35.89123 24.32099 13249 ft 375 kts
2026-05-07 06:44 35.91707 24.32692 13815 ft 380 kts
2026-05-07 06:44 35.94312 24.33291 14499 ft 382 kts
2026-05-07 06:44 35.96923 24.33891 15098 ft 386 kts
2026-05-07 06:45 35.99579 24.34501 15727 ft 389 kts
2026-05-07 06:45 36.02238 24.35112 16259 ft 394 kts
2026-05-07 06:45 36.04952 24.35737 16853 ft 397 kts
2026-05-07 06:45 36.07665 24.36361 17454 ft 399 kts
2026-05-07 06:46 36.10422 24.36996 17994 ft 403 kts
2026-05-07 06:46 36.13188 24.37633 18490 ft 409 kts
2026-05-07 06:46 36.16009 24.38284 19040 ft 412 kts
2026-05-07 06:46 36.18813 24.38931 19585 ft 415 kts
2026-05-07 06:47 36.21652 24.39585 20098 ft 419 kts
2026-05-07 06:47 36.24515 24.40244 20603 ft 423 kts
2026-05-07 06:47 36.27452 24.40922 21143 ft 426 kts
2026-05-07 06:47 36.30348 24.41593 21730 ft 427 kts
2026-05-07 06:48 36.33293 24.42274 22158 ft 431 kts
2026-05-07 06:48 36.36261 24.42962 22562 ft 436 kts
2026-05-07 06:48 36.39233 24.43650 23063 ft 438 kts
2026-05-07 06:48 36.42236 24.44346 23479 ft 443 kts
2026-05-07 06:49 36.45283 24.45053 23996 ft 444 kts
2026-05-07 06:49 36.48298 24.45755 24488 ft 446 kts
2026-05-07 06:49 36.51366 24.46469 24976 ft 448 kts
2026-05-07 06:49 36.54449 24.47188 25379 ft 452 kts
2026-05-07 06:50 36.57513 24.47902 25776 ft 455 kts
2026-05-07 06:50 36.60630 24.48630 26242 ft 456 kts
2026-05-07 06:50 36.63743 24.49357 26805 ft 455 kts
2026-05-07 06:50 36.66830 24.50079 27452 ft 452 kts
2026-05-07 06:51 36.69899 24.50767 28082 ft 448 kts
2026-05-07 06:51 36.72970 24.51255 28673 ft 443 kts
2026-05-07 06:51 36.76065 24.51304 28997 ft 444 kts 355°
2026-05-07 06:51 36.79124 24.50892 29008 ft 439 kts 349°
2026-05-07 06:52 36.85088 24.49421 29008 ft 438 kts 345°
2026-05-07 06:52 36.91049 24.47696 29004 ft 439 kts 345°
2026-05-07 06:53 36.96999 24.45988 29005 ft 438 kts 345°
2026-05-07 06:53 37.02943 24.44323 29003 ft 439 kts 346°
2026-05-07 06:54 37.08914 24.42676 29002 ft 441 kts 346°
2026-05-07 06:54 37.14918 24.41026 29000 ft 438 kts 345°
2026-05-07 06:55 37.20901 24.39376 29000 ft 441 kts 346°
2026-05-07 06:55 37.26886 24.37736 28998 ft 443 kts 346°
2026-05-07 06:56 37.32852 24.36117 28998 ft 441 kts 346°
2026-05-07 06:56 37.38863 24.34485 28996 ft 441 kts 346°
2026-05-07 06:57 37.44837 24.32856 28994 ft 441 kts 346°
2026-05-07 06:57 37.50829 24.31268 28992 ft 441 kts 347°
2026-05-07 06:58 37.56994 24.30931 28986 ft 448 kts
2026-05-07 06:58 37.63071 24.32915 28991 ft 453 kts 15°
2026-05-07 06:59 37.69026 24.35341 28987 ft 452 kts 14°
2026-05-07 06:59 37.75034 24.37611 28988 ft 451 kts 14°
2026-05-07 07:00 37.81036 24.39867 28990 ft 449 kts 14°
2026-05-07 07:00 37.87111 24.42170 28995 ft 461 kts 14°
2026-05-07 07:01 37.93301 24.44541 29002 ft 470 kts 14°
2026-05-07 07:01 37.99575 24.46967 29010 ft 470 kts 14°
2026-05-07 07:02 38.05818 24.49391 29005 ft 470 kts 14°
2026-05-07 07:02 38.12046 24.51815 28992 ft 469 kts 14°
2026-05-07 07:03 38.18289 24.54248 28985 ft 468 kts 14°
2026-05-07 07:03 38.24509 24.56676 28978 ft 469 kts 14°
2026-05-07 07:04 38.30731 24.59108 28974 ft 468 kts 14°
2026-05-07 07:04 38.36968 24.61549 28974 ft 467 kts 14°
2026-05-07 07:05 38.43188 24.63989 28973 ft 468 kts 14°
2026-05-07 07:05 38.49414 24.66437 28974 ft 468 kts 14°
2026-05-07 07:06 38.55624 24.68882 28972 ft 468 kts 14°
2026-05-07 07:06 38.61814 24.71323 28969 ft 467 kts 14°
2026-05-07 07:07 38.68018 24.73773 28969 ft 468 kts 14°
2026-05-07 07:07 38.74215 24.76215 28966 ft 468 kts 14°
2026-05-07 07:08 38.80454 24.78686 28963 ft 468 kts 14°
2026-05-07 07:08 38.86646 24.81152 28963 ft 468 kts 14°
2026-05-07 07:09 38.92837 24.83623 28962 ft 466 kts 14°
2026-05-07 07:09 38.99037 24.86097 28963 ft 466 kts 14°
2026-05-07 07:10 39.05239 24.88575 28961 ft 467 kts 14°
2026-05-07 07:10 39.11432 24.91054 28961 ft 465 kts 14°
2026-05-07 07:11 39.17640 24.93542 28961 ft 466 kts 14°
2026-05-07 07:11 39.23808 24.96020 28961 ft 466 kts 14°
2026-05-07 07:12 39.29989 24.98508 28961 ft 466 kts 14°
2026-05-07 07:12 39.36180 25.01004 28963 ft 467 kts 14°
2026-05-07 07:13 39.42349 25.03495 28968 ft 466 kts 14°
2026-05-07 07:13 39.48510 25.05988 28973 ft 465 kts 14°
2026-05-07 07:14 39.54720 25.08505 28973 ft 467 kts 14°
2026-05-07 07:14 39.60890 25.11012 28973 ft 464 kts 14°
2026-05-07 07:15 39.63928 25.12250 28770 ft 457 kts 14°
2026-05-07 07:15 39.66959 25.13486 27941 ft 459 kts 14°
2026-05-07 07:15 39.70011 25.14729 26821 ft 465 kts 14°
2026-05-07 07:15 39.73107 25.15988 25724 ft 470 kts 14°
2026-05-07 07:16 39.76203 25.17249 24926 ft 467 kts 14°
2026-05-07 07:16 39.79304 25.18517 24237 ft 462 kts 14°
2026-05-07 07:16 39.82341 25.19761 23604 ft 457 kts 14°
2026-05-07 07:16 39.85312 25.20980 22993 ft 451 kts 14°
2026-05-07 07:17 39.88314 25.22229 22319 ft 448 kts 15°
2026-05-07 07:17 39.91204 25.23617 21685 ft 444 kts 19°
2026-05-07 07:17 39.94010 25.25288 21065 ft 441 kts 23°
2026-05-07 07:17 39.96670 25.27118 20420 ft 438 kts 26°
2026-05-07 07:18 39.99334 25.29092 19717 ft 433 kts 27°
2026-05-07 07:18 40.01868 25.31032 18666 ft 426 kts 27°
2026-05-07 07:18 40.04396 25.32998 17518 ft 422 kts 28°
2026-05-07 07:18 40.06864 25.34926 16470 ft 415 kts 28°
2026-05-07 07:19 40.09298 25.36822 15795 ft 400 kts 28°
2026-05-07 07:19 40.11633 25.38636 15169 ft 385 kts 28°
2026-05-07 07:19 40.13895 25.40383 14637 ft 369 kts 28°
2026-05-07 07:19 40.16069 25.42055 14136 ft 353 kts 28°
2026-05-07 07:20 40.18124 25.43630 13635 ft 342 kts 28°
2026-05-07 07:20 40.20170 25.45194 12919 ft 337 kts 28°
2026-05-07 07:20 40.22167 25.46719 12183 ft 334 kts 28°
2026-05-07 07:20 40.24147 25.48233 11459 ft 330 kts 28°
2026-05-07 07:21 40.26127 25.49748 10731 ft 327 kts 28°
2026-05-07 07:21 40.28066 25.51234 10011 ft 323 kts 29°
2026-05-07 07:21 40.29976 25.52700 9269 ft 321 kts 29°
2026-05-07 07:21 40.31895 25.54175 8500 ft 319 kts 29°
2026-05-07 07:22 40.33785 25.55628 8076 ft 310 kts 29°
2026-05-07 07:22 40.35646 25.57059 8098 ft 317 kts 29°
2026-05-07 07:22 40.37566 25.58535 8106 ft 319 kts 29°
2026-05-07 07:22 40.39482 25.60010 8103 ft 319 kts 29°
2026-05-07 07:23 40.41379 25.61472 8097 ft 319 kts 29°
2026-05-07 07:23 40.43295 25.62950 8099 ft 319 kts 29°
2026-05-07 07:23 40.45197 25.64418 8102 ft 318 kts 29°
2026-05-07 07:23 40.47098 25.65885 8100 ft 318 kts 30°
2026-05-07 07:24 40.48971 25.67334 8017 ft 299 kts 30°
2026-05-07 07:24 40.50699 25.68672 7715 ft 286 kts 29°
2026-05-07 07:24 40.52373 25.69969 7406 ft 275 kts 30°
2026-05-07 07:24 40.54009 25.71236 6918 ft 272 kts 29°
2026-05-07 07:25 40.57248 25.73742 5846 ft 271 kts 29°
2026-05-07 07:25 40.58873 25.75001 5311 ft 270 kts 29°
2026-05-07 07:25 40.60477 25.76245 4838 ft 268 kts 29°
2026-05-07 07:26 40.62083 25.77492 4496 ft 267 kts 29°
2026-05-07 07:26 40.63715 25.78634 4122 ft 266 kts 16°
2026-05-07 07:26 40.65498 25.78782 3758 ft 258 kts 342°
2026-05-07 07:26 40.66978 25.77600 3505 ft 246 kts 307°
2026-05-07 07:27 40.67924 25.75816 3489 ft 231 kts 302°
2026-05-07 07:27 40.68854 25.74159 3498 ft 217 kts 307°
2026-05-07 07:27 40.69852 25.72727 3412 ft 213 kts 313°
2026-05-07 07:27 40.70946 25.71444 3257 ft 208 kts 319°
2026-05-07 07:28 40.72096 25.70340 3103 ft 200 kts 323°
2026-05-07 07:28 40.73235 25.69384 2978 ft 192 kts 326°
2026-05-07 07:28 40.74395 25.68506 2988 ft 192 kts 328°
2026-05-07 07:28 40.75584 25.67707 2986 ft 193 kts 332°
2026-05-07 07:29 40.76830 25.67021 2986 ft 194 kts 341°
2026-05-07 07:29 40.78193 25.66997 2988 ft 199 kts 19°
2026-05-07 07:29 40.79310 25.68026 2989 ft 201 kts 54°
2026-05-07 07:29 40.79872 25.69639 3025 ft 181 kts 74°
2026-05-07 07:30 40.80238 25.71205 2983 ft 178 kts 74°
2026-05-07 07:30 40.80609 25.72778 2988 ft 179 kts 74°
2026-05-07 07:30 40.80959 25.74305 2971 ft 165 kts 75°
2026-05-07 07:30 40.81269 25.75705 2988 ft 160 kts 75°
2026-05-07 07:31 40.81578 25.77137 2992 ft 160 kts 75°
2026-05-07 07:31 40.81874 25.78533 2990 ft 159 kts 76°
2026-05-07 07:31 40.82170 25.79943 2991 ft 160 kts 76°
2026-05-07 07:31 40.82456 25.81385 2723 ft 166 kts 77°
2026-05-07 07:32 40.82801 25.82854 2236 ft 168 kts 73°
2026-05-07 07:32 40.83138 25.84271 1980 ft 159 kts 75°
2026-05-07 07:32 40.83443 25.85636 1702 ft 151 kts 74°
2026-05-07 07:32 40.83736 25.86958 1432 ft 151 kts 74°
2026-05-07 07:33 40.84046 25.88274 1146 ft 149 kts 74°
2026-05-07 07:33 40.84335 25.89583 793 ft 146 kts 75°
2026-05-07 07:33 40.84599 25.90843 483 ft 141 kts 76°
2026-05-07 07:33 40.84826 25.92079 250 ft 139 kts 78°
2026-05-07 07:34 40.85060 25.93324 81 ft 138 kts 76°
2026-05-07 07:34 40.85323 25.94512 19 ft 122 kts 75°
2026-05-07 07:34 40.85498 25.95286 20 ft 54 kts 73°
2026-05-07 07:34 40.85549 25.95493 21 ft 0 kts 53°
2026-05-07 07:35 40.85569 25.95523 21 ft 11 kts 56°
2026-05-07 07:35 40.85551 25.95529 21 ft 5 kts 242°
2026-05-07 07:35 40.85536 25.95487 21 ft 5 kts 255°
2026-05-07 07:35 40.85518 25.95386 20 ft 20 kts 255°
2026-05-07 07:36 40.85478 25.95205 19 ft 20 kts 252°
2026-05-07 07:36 40.85440 25.95031 19 ft 19 kts 266°
2026-05-07 07:36 40.85477 25.94872 20 ft 17 kts 297°
2026-05-07 07:36 40.85533 25.94729 22 ft 18 kts 295°
2026-05-07 07:37 40.85518 25.94561 21 ft 20 kts 260°
2026-05-07 07:37 40.85567 25.94533 22 ft 0 kts 37°